Regional Weather Roundup
Issued by NWS

Home | Current Version | Previous Version | Graphics & Text | Print | Product List | Glossary On
Versions: 1 2 3 4 5 6 7 8 9 10 11 12 13 14 15 16 17 18 19 20 21 22 23 24 25 26 27 28 29 30 31 32 33 34 35 36 37 38 39 40 41 42 43 44 45 46 47 48 49 50
000
ASUS43 KLOT 060608
RWRIL

ILLINOIS REGIONAL WEATHER ROUNDUP
NATIONAL WEATHER SERVICE CHICAGO/ROMEOVILLE IL
1200 AM CST SAT FEB 06 2016

NOTE: "FAIR" INDICATES FEW OR NO CLOUDS BELOW 12,000 FEET WITH NO
SIGNIFICANT WEATHER AND/OR OBSTRUCTIONS TO VISIBILITY.

* THESE STATIONS ARE NOT UNDER NWS QUALITY CONTROL. THEY ALSO MAY NOT
  REPORT WEATHER SUCH AS PRECIPITATION OR FOG.

ILZ001-002-007-009-015-016-024-060700-
NORTHWEST ILLINOIS

CITY           SKY/WX    TMP DP  RH WIND       PRES   REMARKS
MOLINE         CLOUDY    29  22  75 SW3       30.30F
6HR MIN TEMP:  26; 6HR MAX TEMP:  30;

STERLING*      CLOUDY    28  23  80 CALM      30.29F
SAVANNA*       CLOUDY    29  24  80 S5        30.30F WCI  24
$$

ILZ003-004-008-010-011-017-018-060700-
NORTH CENTRAL ILLINOIS

CITY           SKY/WX    TMP DP  RH WIND       PRES   REMARKS
ROCKFORD       CLOUDY    27  23  85 S5        30.32S WCI  22
6HR MIN TEMP:  26; 6HR MAX TEMP:  30;

FREEPORT*      CLOUDY    28  23  82 SW8       30.31S WCI  20
ROCHELLE*      CLOUDY    27  24  91 S6        30.31S WCI  20
DE KALB*       CLOUDY    26  23  87 SW3       30.31S
PERU*          CLOUDY    27  24  89 CALM      30.33S
$$

ILZ005-006-012>014-019>023-060700-
NORTHEAST ILLINOIS

CITY           SKY/WX    TMP DP  RH WIND       PRES   REMARKS
CHICAGO-OHARE  CLOUDY    27  22  81 SW5       30.31S WCI  22
6HR MIN TEMP:  26; 6HR MAX TEMP:  30;

CHICAGO-MIDWAY MOCLDY    27  20  75 SW6       30.32S WCI  20
6HR MIN TEMP:  27; 6HR MAX TEMP:  32;

AURORA         PTCLDY    26  21  81 S3        30.32S HAZE
6HR MIN TEMP:  25; 6HR MAX TEMP:  30;

LANSING*       PTCLDY    24  22  89 SW5       30.32F WCI  19
WAUKEGAN       CLOUDY    25  21  85 SW5       30.29S WCI  19
6HR MIN TEMP:  24; 6HR MAX TEMP:  29;

DUPAGE AIRPORT CLOUDY    25  20  81 SW5       30.30F WCI  19
6HR MIN TEMP:  23; 6HR MAX TEMP:  30;

WHEELING       CLOUDY    27  22  81 S5        30.32S WCI  22
6HR MIN TEMP:  27; 6HR MAX TEMP:  31;

MORRIS*        MOCLDY    25  22  89 CALM      30.30F
NORTHERLY ISL    N/A     28  22  78 W9          N/A  WCI  19
$$

LMZ740>746-060700-
SOUTHERN LAKE MICHIGAN

STATION/POSITION SKY/WX   TEMP    WIND        PRES    VSBY  WAVE
                          AIR SEA DIR/SP/G                  HT/PER
                          (F)     (DEG/KT/KT) (MB)    (MI)  (FT/S)
HARRISON CRIB              30     260/ 11/ 12   N/A
BURNHAM HARBOR             28     260/  7/  9   N/A
CALUMET HARBOR             27     210/  5/  8 1025.9F
BURNS HARBOR               27     220/  8/ 11 1027.4S
MICHIGAN CITY              27     180/  8/  9   N/A
$$

ILZ025>027-034>036-040-047-049-050-058-095>099-060700-
WEST-CENTRAL ILLINOIS

CITY           SKY/WX    TMP DP  RH WIND       PRES   REMARKS
QUINCY         CLOUDY    30  21  69 S6        30.30F WCI  24
GALESBURG*     MOCLDY    26  22  87 CALM      30.30F
MACOMB*        CLOUDY    28  25  91 S5        30.33S WCI  22
JACKSONVILLE*  CLOUDY    29  24  83 SE3       30.32F
PITTSFIELD*    CLOUDY    30  24  79 CALM      30.33S
$$

ILZ028>032-037-038-041>044-048-051>054-059>061-060700-
CENTRAL ILLINOIS

CITY           SKY/WX    TMP DP  RH WIND       PRES   REMARKS
PONTIAC        CLEAR     25  23  93 S3        30.33F
BLOOMINGTON    PTCLDY    24  23  96 S5        30.32F WCI  18
DECATUR        CLEAR     25  20  81 SE6       30.32F WCI  18
PEORIA         CLOUDY    26  20  77 SE3       30.32F
6HR MIN TEMP:  24; 6HR MAX TEMP:  30;

LACON*         CLOUDY    24  20  83 CALM      30.32S
LINCOLN*       CLEAR     27  25  93 CALM      30.33S
SPRINGFIELD    CLEAR     26  21  81 E3        30.33S
6HR MIN TEMP:  25; 6HR MAX TEMP:  32;

TAYLORVILLE    CLOUDY    27  23  86 SE3       30.32F
$$

ILZ033-039-045-046-055>057-062-063-060700-
EAST-CENTRAL ILLINOIS

CITY           SKY/WX    TMP DP  RH WIND       PRES   REMARKS
CHAMPAIGN      CLOUDY    22  19  89 S3        30.33F
RANTOUL*       CLEAR     27  26  93 S3        30.33F
MATTOON        CLOUDY    24  21  88 SE3       30.33F
PARIS*         CLOUDY    25  24  94 CALM      30.35F
$$

ILZ079-100>102-060700-
SOUTHWEST ILLINOIS

CITY           SKY/WX    TMP DP  RH WIND       PRES   REMARKS
ALTON          CLOUDY    26  22  84 CALM      30.33F
BELLEVILLE     CLEAR     25  21  87 CALM      30.33S
CAHOKIA*       CLOUDY    28  20  71 CALM      30.33F
SPARTA*        PTCLDY    29  23  76 SE3       30.34F
$$

ILZ064>066-069>071-074>076-080>082-084>086-088>090-092>094-060700-
SOUTH-CENTRAL ILLINOIS

CITY           SKY/WX    TMP DP  RH WIND       PRES   REMARKS
CARBONDALE     CLOUDY    30  21  69 CALM      30.35S
6HR MIN TEMP:  25; 6HR MAX TEMP:  38;

CAIRO*         CLEAR     28  28  98 CALM      30.35F
EFFINGHAM*     CLOUDY    27  26  97 E5        30.36S WCI  22
MARION         CLEAR     32  23  69 CALM      30.35F
MT. VERNON     CLEAR     25  18  74 CALM      30.35S
CENTRALIA*     PTCLDY    28  24  86 E3        30.33F
SALEM*         CLEAR     30  24  77 E5        30.34F WCI  25
METROPOLIS*    CLEAR     27  25  93 CALM      30.36F
$$

ILZ067-068-072-073-078-083-087-091-060700-
SOUTHEAST ILLINOIS

CITY           SKY/WX    TMP DP  RH WIND       PRES   REMARKS
LAWRENCEVILLE  CLEAR     25  22  88 E3        30.37F
FLORA*         CLEAR     26  24  89 CALM      30.36F
FAIRFIELD*     CLEAR     29  22  76 CALM      30.35S
HARRISBURG*    PTCLDY    27  23  85 CALM      30.36F
ROBINSON*      CLEAR     21  20  95 S3        30.38S
CARMI*         CLEAR     28  25  87 CALM      30.36S
$$

ABBREVIATIONS USED IN REMARKS
   TC - TEMPERATURE IN CELSIUS
  WCI - WIND CHILL INDEX
   HX - HEAT INDEX
  VSB - VISIBILITY
$$




USA.gov is the U.S. government's official web portal to all federal, state and local government web resources and services.